CW9703 Weather Reports


Display with metric or nautical units.
time (UTC)temp
F
wind
direction
speed
MPH
gust
MPH
rain 1hr
in
rain 24hr
in
rain mn
in
humidity
%
barometer
mb
20180524194008 64 157 7.0 10.0 0.00 0.00 0.00 80 1019.4
20180524190707 64 148 9.0 10.0 0.00 0.00 0.00 78 1019.5
20180524182307 63 125 6.0 9.0 0.00 0.00 0.00 79 1020.2
20180524173916 62 155 8.0 9.0 0.00 0.00 0.00 80 1020.9
20180524164405 62 153 3.0 11.0 0.00 0.00 0.00 80 1021.7
20180524153804 61 130 2.0 3.0 0.00 0.00 0.00 88 1022.2
20180524143203 60 104 0.0 2.0 0.00 0.00 0.00 88 1022.6
20180524141003 61 104 0.0 0.0 0.00 0.00 0.00 88 1022.7
20180524132603 58 104 0.0 0.0 0.00 0.00 0.00 91 1023.0
20180524124212 58 104 0.0 2.0 0.00 0.00 0.00 92 1023.0
20180524114706 56 134 2.0 3.0 0.00 0.01 0.00 95 1023.1
20180524112501 54 206 2.0 3.0 0.00 0.01 0.00 94 1022.9
20180524110301 53 239 0.0 0.0 0.00 0.01 0.00 94 1022.5
20180524104100 52 239 0.0 0.0 0.00 0.01 0.00 93 1022.3
20180524093501 55 239 0.0 0.0 0.00 0.01 0.00 89 1021.7
20180524091300 55 239 0.0 0.0 0.00 0.01 0.00 89 1021.7
20180524082859 54 239 0.0 0.0 0.00 0.01 0.00 86 1021.4
20180524080658 55 239 0.0 0.0 0.00 0.01 0.00 85 1021.4
20180524074458 56 238 0.0 2.0 0.00 0.01 0.00 84 1021.4
20180524072258 55 270 0.0 0.0 0.00 0.01 0.00 87 1021.5
20180524070107 55 271 0.0 0.0 0.00 0.01 0.00 83 1021.4
20180524064957 55 271 0.0 0.0 0.00 0.01 0.00 83 1021.3
20180524062757 56 271 0.0 0.0 0.00 0.01 0.00 82 1021.2
20180524054356 54 55 0.0 0.0 0.00 0.01 0.00 84 1021.2
20180524052156 54 63 0.0 0.0 0.00 0.01 0.00 83 1021.3
20180524045956 55 92 0.0 0.0 0.00 0.01 0.00 83 1021.2
20180524041555 56 92 0.0 0.0 0.00 0.01 0.00 79 1021.0
20180524031004 56 92 0.0 0.0 0.00 0.01 0.01 74 1021.1
20180524025854 56 92 0.0 0.0 0.00 0.01 0.01 72 1021.1
20180524023654 57 94 0.0 0.0 0.00 0.01 0.01 69 1021.0
20180524013053 59 94 0.0 0.0 0.00 0.01 0.01 67 1020.7
20180524004652 60 94 0.0 0.0 0.00 0.01 0.01 80 1020.5
20180524000252 63 94 2.0 4.0 0.00 0.01 0.01 64 1020.4
20180523234052 64 93 2.0 4.0 0.00 0.01 0.01 68 1020.4
20180523225651 66 360 4.0 6.0 0.00 0.01 0.01 58 1020.6
20180523223451 64 92 3.0 7.0 0.00 0.01 0.01 71 1020.6
20180523212900 66 104 6.0 7.0 0.00 0.01 0.01 65 1020.9
20180523211800 67 95 7.0 9.0 0.00 0.01 0.01 62 1021.0
20180523204449 66 98 6.0 9.0 0.00 0.01 0.01 64 1021.0
20180523202249 66 109 8.0 9.0 0.00 0.01 0.01 66 1021.0
20180523200049 65 96 7.0 9.0 0.00 0.01 0.01 65 1021.1